FW0442 Weather Reports


time (UTC)temp
C
wind
direction
speed
KPH
gust
KPH
rain 1hr
cm
rain 24hr
cm
rain mn
cm
humidity
%
barometer
mb
20260508051302 8 138 0.0 1.6 0.00 0.00 0.00 90 1014.6
20260508044303 7 138 0.0 0.0 0.00 0.00 0.00 90 1014.7
20260508041301 8 138 0.0 1.6 0.00 0.00 0.00 87 1014.6
20260508034303 8 138 0.0 1.6 0.00 0.00 0.00 88 1014.7
20260508031302 8 138 0.0 1.6 0.00 0.00 0.00 89 1014.6
20260508021302 9 138 0.0 3.2 0.00 0.00 0.00 84 1014.5
20260508011302 8 157 0.0 0.0 0.00 0.00 0.00 92 1014.7
20260508004302 9 157 0.0 0.0 0.00 0.00 0.00 93 1014.8
20260508001304 8 157 0.0 0.0 0.00 0.00 0.00 92 1014.6
20260507234303 9 157 0.0 0.0 0.00 0.00 0.00 92 1014.7
20260507231302 8 157 0.0 0.0 0.00 0.00 0.00 92 1014.7
20260507224302 9 157 0.0 0.0 0.00 0.00 0.00 90 1014.7
20260507221301 10 157 0.0 0.0 0.00 0.00 0.00 88 1014.8
20260507214303 9 157 0.0 0.0 0.00 0.00 0.00 89 1014.8
20260507211302 10 157 0.0 0.0 0.00 0.00 0.00 86 1014.6
20260507204302 10 157 0.0 0.0 0.00 0.00 0.00 87 1014.5
20260507201301 10 157 0.0 3.2 0.00 0.00 0.00 85 1014.2
20260507194301 10 149 1.6 1.6 0.00 0.00 0.00 83 1014.1
20260507191258 11 125 0.0 1.6 0.00 0.00 0.00 81 1014.0
20260507184254 12 124 0.0 3.2 0.00 0.00 0.00 77 1014.0
20260507181253 12 171 1.6 6.4 0.00 0.00 0.00 73 1013.8
20260507174246 13 152 3.2 8.0 0.00 0.00 0.00 69 1013.6
20260507171243 13 135 3.2 9.7 0.00 0.00 0.00 65 1013.6
20260507164239 14 200 3.2 11.3 0.00 0.00 0.00 65 1013.6
20260507161234 14 145 4.8 14.5 0.00 0.00 0.00 63 1013.7
20260507154234 14 193 3.2 14.5 0.00 0.00 0.00 64 1013.6
20260507151230 14 180 1.6 9.7 0.00 0.00 0.00 67 1013.8
20260507144230 14 172 3.2 14.5 0.00 0.00 0.00 60 1013.9
20260507134232 14 151 4.8 11.3 0.00 0.00 0.00 60 1014.2
20260507131230 14 159 3.2 9.7 0.00 0.00 0.00 62 1014.3
20260507124232 15 147 3.2 14.5 0.00 0.00 0.00 63 1014.4
20260507121231 15 154 6.4 16.1 0.00 0.00 0.00 64 1014.5
20260507114232 14 172 3.2 14.5 0.00 0.00 0.00 70 1014.7
20260507111231 13 164 3.2 8.0 0.00 0.00 0.00 74 1015.0
20260507101231 10 259 0.0 4.8 0.00 0.00 0.00 83 1015.3
20260507094232 9 24 0.0 4.8 0.00 0.00 0.00 85 1015.4
20260507084232 7 147 0.0 1.6 0.00 0.00 0.00 90 1015.4
20260507081231 7 193 0.0 3.2 0.00 0.00 0.00 90 1015.3
20260507074232 6 66 0.0 3.2 0.00 0.00 0.00 92 1015.2
20260507071231 6 140 0.0 3.2 0.00 0.00 0.00 92 1015.2
20260507064231 6 312 0.0 1.6 0.00 0.00 0.00 93 1015.0